Location: La Pernelle
(49.6188°N, 1.2999°W)
Time: 04:04:16
(UTC+00:00)

NOSS 3-2 (A) - Pass Details

Date: 22 October 2021
Orbit: 771 x 1437 km, 63.4° (Epoch: 21 November)

Event Time Altitude Azimuth Distance (km) Brightness Sun altitude
Rises 17:42:06 0° 291° (WNW) 3,579 7.6 -7.4°
Reaches altitude 10° 17:44:59 10° 304° (NW) 2,734 6.6 -7.9°
Maximum altitude 17:50:18 26° 360° (N) 1,992 5.1 -8.7°
Drops below altitude 10° 17:56:21 10° 54° (NE) 3,136 5.6 -9.7°
Enters shadow 17:57:07 - 58° (ENE) 3,356 5.7 -9.8°
